Vertical_Velocity
-16 -7 1 1 -0 4 2 6 0 3 1 1 2 2 4 6 -5 -7 -6 12 -3 -4
-14 6 9 1 4 6 5 2 3 2 2 -3 0 10 -1 -2 0 -2 5 0 -5 -2
11 5 1 -2 -1 6 2 2 4 10 -3 6 1 -1 1 -1 -0 1 4 -6 -3 -0
6 4 1 1 8 4 7 17 -6 4 20 9 0 3 -3 9 -2 4 -5 -2 -1 -2
7 3 2 3 -7 -4 1 13 19 -9 -2 11 30 -1 14 4 1 -6 1 -2 -3 -1
6 3 -1 2 17 -2 29 9 0 -1 8 -5 3 4 1 6 -1 0 -1 -1 -3 -1
5 8 9 4 24 8 -5 -20 2 2 28 -4 7 6 -0 -7 -2 -2 -1 -1 -2 -2
1 -0 -0 4 10 -3 -9 -0 7 16 2 6 12 -2 -1 1 -0 -0 -1 -1 -1 -0
-0 -1 0 -2 -8 8 -7 4 6 2 5 6 -4 1 -2 -2 2 0 -1 0 1 1
-0 -1 -1 -4 5 -8 8 -7 17 19 -3 -3 -1 -7 -2 1 0 0 1 -0 1 -1
-1 -2 -1 -5 -2 11 7 15 -5 4 -2 -1 -1 -3 -2 1 -1 0 2 2 2 -2
-3 -3 -2 -2 11 5 -4 -3 -1 -0 -1 -3 1 -2 1 0 1 1 1 3 0 -2
-1 -1 4 1 1 -0 -0 1 1 1 -2 0 1 4 2 3 -0 -2 0 7 4 3
-4 0 -1 -1 0 0 1 1 -1 0 3 1 -1 1 2 7 -2 1 -4 -0 2 5
Height
3124 3126 3126 3124 3123 3123 3123 3124 3123 3122 3121 3119 3117 3113 3110 3106 3103 3101 3096 3093 3089 3085
3118 3119 3120 3118 3116 3117 3116 3116 3116 3114 3113 3111 3108 3105 3102 3098 3096 3092 3088 3084 3080 3075
3114 3113 3111 3110 3110 3110 3110 3109 3108 3106 3105 3103 3100 3097 3093 3090 3087 3083 3079 3076 3071 3065
3108 3106 3104 3103 3104 3104 3101 3099 3098 3099 3096 3092 3090 3088 3084 3082 3079 3075 3071 3066 3060 3057
3101 3100 3097 3097 3096 3095 3092 3087 3090 3092 3089 3086 3083 3081 3077 3074 3069 3066 3061 3055 3052 3048
3095 3093 3092 3091 3087 3088 3082 3081 3085 3083 3078 3077 3074 3070 3067 3064 3060 3055 3050 3046 3042 3039
3088 3087 3086 3085 3081 3080 3082 3079 3077 3072 3070 3070 3068 3062 3057 3053 3049 3044 3040 3037 3034 3031
3080 3079 3078 3077 3075 3073 3072 3072 3068 3065 3065 3061 3056 3053 3048 3043 3039 3035 3032 3029 3025 3022
3072 3071 3070 3069 3067 3063 3064 3061 3058 3057 3053 3050 3048 3043 3038 3034 3030 3027 3024 3020 3016 3012
3064 3063 3061 3060 3059 3057 3055 3052 3048 3045 3044 3041 3037 3033 3030 3026 3022 3018 3015 3011 3007 3002
3056 3055 3055 3053 3052 3049 3048 3044 3041 3038 3035 3032 3029 3025 3020 3017 3013 3008 3005 3000 2996 2992
3049 3049 3047 3044 3044 3040 3039 3037 3033 3030 3026 3022 3019 3015 3011 3008 3003 2998 2994 2989 2985 2980
3042 3041 3039 3038 3036 3034 3031 3028 3024 3021 3017 3013 3010 3006 3003 2997 2991 2986 2982 2978 2973 2968
3035 3034 3033 3031 3028 3025 3022 3019 3016 3012 3009 3005 3000 2996 2991 2986 2978 2972 2967 2962 2959 2956